Location: Unspecified
(48.7670°N, 0.0000°E)
Time: 20:25:49
(UTC+00:00)

Altair - Pass Details

Date: 19 June 2019
Orbit: 1501 x 1683 km, 47.2° (Epoch: 17 July)

Event Time Altitude Azimuth Distance (km) Brightness Sun altitude
Rises 21:44:17 0° 246° (WSW) 4,740 10.2 -11.6°
Reaches altitude 10° 21:47:19 10° 244° (WSW) 3,780 9.6 -11.8°
Maximum altitude 21:56:55 73° 163° (SSE) 1,689 7.5 -12.6°
Drops below altitude 10° 22:06:54 10° 81° (E) 3,920 9.5 -13.4°
Sets 22:10:06 0° 80° (E) 4,922 10.0 -13.6°
